Location: G�ppingen
(0.0000°N, 0.0000°E)
Time: 18:08:48
(UTC+00:00)

Tiangong 2 - Pass Details

Date: 22 May 2019
Orbit: 376 x 388 km, 42.8° (Epoch: 16 June)

Event Time Altitude Azimuth Distance (km) Brightness Sun altitude
Exits shadow 04:12:43 11° 135° (SE) 1,364 4.1 -24.3°
Drops below altitude 10° 04:12:49 10° 135° (SE) 1,409 4.2 -24.2°
Sets 04:14:52 0° 135° (SE) 2,255 5.2 -23.8°
